| time (UTC) | temp C | wind direction | speed KPH | gust KPH | rain 1hr cm | rain 24hr cm | rain mn cm | humidity % | barometer mb |
| 20260906225518 | 21 | 19 | 22.5 | 32.2 | 0.00 | 0.00 | 0.00 | 65 | 1015.6 |
| 20260906225019 | 21 | 344 | 22.5 | 32.2 | 0.00 | 0.00 | 0.00 | 64 | 1015.7 |
| 20260906224600 | 21 | 338 | 22.5 | 29.0 | 0.00 | 0.00 | 0.00 | 65 | 1015.6 |
| 20260906224018 | 20 | 329 | 20.9 | 29.0 | 0.00 | 0.00 | 0.00 | 65 | 1015.7 |
| 20260906223520 | 21 | 319 | 22.5 | 29.0 | 0.00 | 0.00 | 0.00 | 64 | 1015.6 |
| 20260906223042 | 21 | 360 | 20.9 | 25.7 | 0.00 | 0.00 | 0.00 | 64 | 1015.7 |
| 20260906222518 | 20 | 323 | 19.3 | 25.7 | 0.00 | 0.00 | 0.00 | 64 | 1015.7 |
| 20260906222019 | 21 | 324 | 17.7 | 24.1 | 0.00 | 0.00 | 0.00 | 64 | 1015.7 |
| 20260906221551 | 21 | 360 | 16.1 | 24.1 | 0.00 | 0.00 | 0.00 | 64 | 1015.8 |
| 20260906221017 | 21 | 350 | 11.3 | 25.7 | 0.00 | 0.00 | 0.00 | 64 | 1015.7 |
| 20260906220517 | 21 | 348 | 17.7 | 25.7 | 0.00 | 0.00 | 0.00 | 63 | 1015.7 |
| 20260906220054 | 21 | 309 | 14.5 | 20.9 | 0.00 | 0.00 | 0.00 | 63 | 1015.7 |
| 20260906215516 | 21 | 333 | 9.7 | 22.5 | 0.00 | 0.00 | 0.00 | 62 | 1015.6 |
| 20260906215016 | 21 | 17 | 8.0 | 22.5 | 0.00 | 0.00 | 0.00 | 63 | 1015.7 |
| 20260906214817 | 21 | 344 | 9.7 | 16.1 | 0.00 | 0.00 | 0.00 | 62 | 1015.8 |
| 20260906214021 | 21 | 360 | 11.3 | 16.1 | 0.00 | 0.00 | 0.00 | 62 | 1015.7 |
| 20260906213518 | 21 | 17 | 9.7 | 16.1 | 0.00 | 0.00 | 0.00 | 62 | 1015.8 |
| 20260906213034 | 21 | 360 | 4.8 | 17.7 | 0.00 | 0.00 | 0.00 | 62 | 1015.7 |
| 20260906212515 | 21 | 360 | 9.7 | 17.7 | 0.00 | 0.00 | 0.00 | 62 | 1015.8 |
| 20260906212016 | 21 | 360 | 4.8 | 11.3 | 0.00 | 0.00 | 0.00 | 62 | 1015.9 |
| 20260906211542 | 21 | 17 | 3.2 | 12.9 | 0.00 | 0.00 | 0.00 | 62 | 1016.0 |
| 20260906211024 | 21 | 328 | 8.0 | 12.9 | 0.00 | 0.00 | 0.00 | 62 | 1016.1 |
| 20260906210516 | 21 | 51 | 3.2 | 6.4 | 0.00 | 0.00 | 0.00 | 62 | 1016.1 |
| 20260906210038 | 21 | 51 | 1.6 | 9.7 | 0.00 | 0.00 | 0.00 | 62 | 1016.2 |
| 20260906205516 | 21 | 65 | 3.2 | 12.9 | 0.00 | 0.00 | 0.00 | 63 | 1016.4 |
| 20260906205018 | 21 | 106 | 9.7 | 14.5 | 0.00 | 0.00 | 0.00 | 62 | 1016.2 |
| 20260906204538 | 21 | 92 | 1.6 | 6.4 | 0.00 | 0.00 | 0.00 | 63 | 1016.4 |
| 20260906204017 | 21 | 350 | 0.0 | 12.9 | 0.00 | 0.00 | 0.00 | 64 | 1016.3 |
| 20260906203516 | 20 | 34 | 3.2 | 16.1 | 0.00 | 0.00 | 0.00 | 64 | 1016.3 |
| 20260906203035 | 20 | 36 | 8.0 | 17.7 | 0.00 | 0.00 | 0.00 | 66 | 1016.3 |
| 20260906202516 | 20 | 348 | 8.0 | 19.3 | 0.00 | 0.00 | 0.00 | 66 | 1016.2 |
| 20260906202018 | 20 | 69 | 4.8 | 17.7 | 0.00 | 0.00 | 0.00 | 66 | 1016.4 |
| 20260906201535 | 20 | 44 | 11.3 | 22.5 | 0.00 | 0.00 | 0.00 | 66 | 1016.4 |
| 20260906201017 | 20 | 39 | 12.9 | 22.5 | 0.00 | 0.00 | 0.00 | 66 | 1016.3 |
| 20260906200518 | 20 | 67 | 6.4 | 22.5 | 0.00 | 0.00 | 0.00 | 67 | 1016.2 |
| 20260906200043 | 20 | 30 | 9.7 | 22.5 | 0.00 | 0.00 | 0.00 | 67 | 1016.2 |
| 20260906195518 | 20 | 60 | 14.5 | 24.1 | 0.00 | 0.00 | 0.00 | 68 | 1016.0 |
| 20260906195016 | 20 | 57 | 16.1 | 24.1 | 0.00 | 0.00 | 0.00 | 68 | 1016.1 |
| 20260906194534 | 19 | 40 | 12.9 | 20.9 | 0.00 | 0.00 | 0.00 | 69 | 1016.5 |
| 20260906194022 | 19 | 49 | 14.5 | 22.5 | 0.00 | 0.00 | 0.00 | 69 | 1016.6 |
| 20260906193517 | 19 | 20 | 16.1 | 24.1 | 0.00 | 0.00 | 0.00 | 69 | 1016.3 |
| 20260906193053 | 18 | 30 | 16.1 | 29.0 | 0.00 | 0.00 | 0.00 | 69 | 1016.3 |
| 20260906192517 | 18 | 34 | 16.1 | 25.7 | 0.00 | 0.00 | 0.00 | 70 | 1016.5 |
| 20260906192017 | 18 | 51 | 17.7 | 27.4 | 0.00 | 0.00 | 0.00 | 70 | 1016.6 |
| 20260906191539 | 18 | 19 | 19.3 | 27.4 | 0.00 | 0.00 | 0.00 | 71 | 1016.7 |
| 20260906191016 | 18 | 28 | 19.3 | 27.4 | 0.00 | 0.00 | 0.00 | 72 | 1016.8 |
| 20260906190518 | 17 | 32 | 20.9 | 27.4 | 0.00 | 0.00 | 0.00 | 72 | 1016.7 |
| 20260906190035 | 17 | 17 | 17.7 | 27.4 | 0.00 | 0.00 | 0.00 | 73 | 1017.0 |
| 20260906185515 | 17 | 10 | 20.9 | 30.6 | 0.00 | 0.00 | 0.00 | 73 | 1017.3 |
| 20260906185018 | 17 | 15 | 20.9 | 30.6 | 0.00 | 0.00 | 0.00 | 73 | 1017.2 |
| 20260906184542 | 16 | 352 | 20.9 | 29.0 | 0.00 | 0.00 | 0.00 | 74 | 1017.6 |
| 20260906184018 | 16 | 5 | 22.5 | 30.6 | 0.00 | 0.00 | 0.00 | 75 | 1017.5 |
| 20260906183518 | 16 | 11 | 22.5 | 30.6 | 0.00 | 0.00 | 0.00 | 75 | 1017.6 |
| 20260906183036 | 16 | 352 | 22.5 | 30.6 | 0.00 | 0.00 | 0.00 | 76 | 1017.6 |
| 20260906182519 | 16 | 5 | 24.1 | 30.6 | 0.00 | 0.00 | 0.00 | 76 | 1017.9 |
| 20260906182017 | 16 | 5 | 22.5 | 30.6 | 0.00 | 0.00 | 0.00 | 77 | 1017.9 |
| 20260906181550 | 16 | 327 | 22.5 | 29.0 | 0.00 | 0.00 | 0.00 | 78 | 1017.9 |
| 20260906181017 | 15 | 21 | 22.5 | 29.0 | 0.00 | 0.00 | 0.00 | 79 | 1017.9 |
| 20260906180518 | 15 | 13 | 24.1 | 32.2 | 0.00 | 0.00 | 0.00 | 80 | 1018.0 |
| 20260906180037 | 15 | 5 | 24.1 | 32.2 | 0.00 | 0.00 | 0.00 | 82 | 1017.9 |
| 20260906175515 | 15 | 16 | 25.7 | 32.2 | 0.00 | 0.00 | 0.00 | 83 | 1017.8 |
| 20260906175019 | 15 | 5 | 25.7 | 32.2 | 0.00 | 0.00 | 0.00 | 84 | 1018.0 |
| 20260906174538 | 14 | 15 | 22.5 | 30.6 | 0.00 | 0.00 | 0.00 | 85 | 1018.1 |
| 20260906174019 | 14 | 352 | 22.5 | 30.6 | 0.00 | 0.00 | 0.00 | 86 | 1018.2 |
| 20260906173520 | 14 | 9 | 24.1 | 32.2 | 0.00 | 0.00 | 0.00 | 86 | 1018.1 |
| 20260906173036 | 14 | 348 | 24.1 | 32.2 | 0.00 | 0.00 | 0.00 | 85 | 1018.3 |
| 20260906172516 | 14 | 360 | 22.5 | 32.2 | 0.00 | 0.00 | 0.00 | 85 | 1018.1 |
| 20260906172019 | 15 | 352 | 25.7 | 35.4 | 0.00 | 0.00 | 0.00 | 83 | 1018.2 |
| 20260906171534 | 15 | 337 | 27.4 | 35.4 | 0.00 | 0.00 | 0.00 | 81 | 1018.2 |
| 20260906171015 | 16 | 342 | 22.5 | 35.4 | 0.00 | 0.00 | 0.00 | 80 | 1018.3 |
| 20260906170521 | 16 | 341 | 20.9 | 27.4 | 0.00 | 0.00 | 0.00 | 79 | 1018.2 |
| 20260906170037 | 16 | 360 | 16.1 | 24.1 | 0.00 | 0.00 | 0.00 | 79 | 1018.3 |
| 20260906165518 | 16 | 5 | 16.1 | 20.9 | 0.00 | 0.00 | 0.00 | 80 | 1018.3 |
| 20260906165024 | 16 | 26 | 14.5 | 19.3 | 0.00 | 0.00 | 0.00 | 80 | 1018.2 |
| 20260906164542 | 16 | 26 | 14.5 | 19.3 | 0.00 | 0.00 | 0.00 | 81 | 1018.1 |
| 20260906164017 | 16 | 27 | 12.9 | 17.7 | 0.00 | 0.00 | 0.00 | 81 | 1018.4 |
| 20260906163516 | 16 | 10 | 9.7 | 16.1 | 0.00 | 0.00 | 0.00 | 81 | 1018.5 |
| 20260906163037 | 16 | 19 | 8.0 | 16.1 | 0.00 | 0.00 | 0.00 | 81 | 1018.6 |
| 20260906162516 | 16 | 39 | 9.7 | 14.5 | 0.00 | 0.00 | 0.00 | 82 | 1018.6 |
| 20260906162017 | 16 | 341 | 3.2 | 12.9 | 0.00 | 0.00 | 0.00 | 82 | 1018.7 |
| 20260906161536 | 16 | 32 | 3.2 | 14.5 | 0.00 | 0.00 | 0.00 | 82 | 1018.7 |
| 20260906161017 | 16 | 61 | 4.8 | 14.5 | 0.00 | 0.00 | 0.00 | 82 | 1018.7 |
| 20260906160517 | 16 | 38 | 6.4 | 11.3 | 0.00 | 0.00 | 0.00 | 82 | 1018.7 |
| 20260906160059 | 16 | 74 | 6.4 | 14.5 | 0.00 | 0.00 | 0.00 | 82 | 1018.8 |
| 20260906155519 | 16 | 43 | 8.0 | 17.7 | 0.00 | 0.00 | 0.00 | 82 | 1018.7 |
| 20260906155019 | 16 | 55 | 9.7 | 16.1 | 0.00 | 0.00 | 0.00 | 82 | 1018.5 |
| 20260906154543 | 16 | 50 | 6.4 | 14.5 | 0.00 | 0.00 | 0.00 | 83 | 1018.5 |
| 20260906154019 | 16 | 74 | 8.0 | 19.3 | 0.00 | 0.00 | 0.00 | 83 | 1018.6 |
| 20260906153516 | 15 | 38 | 12.9 | 19.3 | 0.00 | 0.00 | 0.00 | 82 | 1018.7 |
| 20260906153044 | 16 | 55 | 12.9 | 19.3 | 0.00 | 0.00 | 0.00 | 82 | 1018.7 |
| 20260906152521 | 15 | 63 | 14.5 | 19.3 | 0.00 | 0.00 | 0.00 | 82 | 1018.5 |
| 20260906152017 | 15 | 51 | 16.1 | 22.5 | 0.00 | 0.00 | 0.00 | 83 | 1018.5 |
| 20260906151545 | 15 | 74 | 12.9 | 22.5 | 0.00 | 0.00 | 0.00 | 84 | 1018.7 |
| 20260906151018 | 15 | 51 | 12.9 | 19.3 | 0.00 | 0.00 | 0.00 | 84 | 1018.7 |
| 20260906150517 | 15 | 67 | 12.9 | 20.9 | 0.00 | 0.00 | 0.00 | 85 | 1018.8 |
| 20260906150038 | 15 | 67 | 14.5 | 20.9 | 0.00 | 0.00 | 0.00 | 85 | 1018.5 |
| 20260906145519 | 15 | 59 | 16.1 | 22.5 | 0.00 | 0.00 | 0.00 | 85 | 1018.5 |
| 20260906145022 | 15 | 49 | 17.7 | 22.5 | 0.00 | 0.00 | 0.00 | 85 | 1018.6 |
| 20260906144545 | 15 | 59 | 16.1 | 20.9 | 0.00 | 0.00 | 0.00 | 85 | 1018.7 |
| 20260906144016 | 15 | 49 | 12.9 | 17.7 | 0.00 | 0.00 | 0.00 | 85 | 1019.1 |
| 20260906143516 | 15 | 39 | 12.9 | 16.1 | 0.00 | 0.00 | 0.00 | 85 | 1019.1 |
| 20260906143042 | 15 | 42 | 12.9 | 16.1 | 0.00 | 0.00 | 0.00 | 86 | 1019.2 |
| 20260906142517 | 15 | 49 | 9.7 | 16.1 | 0.00 | 0.00 | 0.00 | 86 | 1019.2 |
| 20260906142016 | 15 | 46 | 11.3 | 16.1 | 0.00 | 0.00 | 0.00 | 86 | 1019.3 |
| 20260906141540 | 15 | 37 | 11.3 | 16.1 | 0.00 | 0.00 | 0.00 | 85 | 1019.4 |
| 20260906141017 | 15 | 37 | 8.0 | 16.1 | 0.00 | 0.00 | 0.00 | 85 | 1019.5 |
| 20260906140518 | 15 | 40 | 11.3 | 16.1 | 0.00 | 0.00 | 0.00 | 85 | 1019.3 |
| 20260906140037 | 15 | 31 | 11.3 | 19.3 | 0.00 | 0.00 | 0.00 | 85 | 1019.2 |
| 20260906135515 | 15 | 20 | 12.9 | 19.3 | 0.00 | 0.00 | 0.00 | 85 | 1019.0 |
| 20260906135018 | 15 | 19 | 11.3 | 19.3 | 0.00 | 0.00 | 0.00 | 85 | 1019.2 |
| 20260906134536 | 14 | 20 | 11.3 | 19.3 | 0.00 | 0.00 | 0.00 | 85 | 1019.2 |
| 20260906134019 | 14 | 13 | 14.5 | 19.3 | 0.00 | 0.00 | 0.00 | 84 | 1019.1 |
| 20260906133518 | 14 | 30 | 11.3 | 22.5 | 0.00 | 0.00 | 0.00 | 85 | 1019.2 |
| 20260906133046 | 14 | 17 | 14.5 | 24.1 | 0.00 | 0.00 | 0.00 | 85 | 1019.0 |
| 20260906132517 | 14 | 22 | 16.1 | 24.1 | 0.00 | 0.00 | 0.00 | 84 | 1018.9 |
| 20260906132018 | 14 | 28 | 14.5 | 19.3 | 0.00 | 0.00 | 0.00 | 84 | 1019.2 |
| 20260906131539 | 14 | 21 | 12.9 | 17.7 | 0.00 | 0.00 | 0.00 | 85 | 1019.3 |
| 20260906131017 | 14 | 5 | 12.9 | 19.3 | 0.00 | 0.00 | 0.00 | 84 | 1019.3 |
| 20260906130517 | 14 | 5 | 12.9 | 19.3 | 0.00 | 0.00 | 0.00 | 84 | 1019.1 |
| 20260906130044 | 14 | 22 | 14.5 | 19.3 | 0.00 | 0.00 | 0.00 | 84 | 1018.9 |
| 20260906125516 | 14 | 5 | 12.9 | 19.3 | 0.00 | 0.00 | 0.00 | 85 | 1018.9 |
| 20260906125017 | 14 | 28 | 14.5 | 19.3 | 0.00 | 0.00 | 0.00 | 85 | 1018.9 |
| 20260906124542 | 13 | 15 | 11.3 | 17.7 | 0.00 | 0.00 | 0.00 | 85 | 1019.1 |
| 20260906124016 | 13 | 22 | 14.5 | 17.7 | 0.00 | 0.00 | 0.00 | 85 | 1018.9 |
| 20260906123516 | 13 | 19 | 11.3 | 16.1 | 0.00 | 0.00 | 0.00 | 85 | 1018.9 |
| 20260906123038 | 13 | 21 | 8.0 | 14.5 | 0.00 | 0.00 | 0.00 | 86 | 1019.1 |
| 20260906122519 | 13 | 17 | 8.0 | 14.5 | 0.00 | 0.00 | 0.00 | 86 | 1019.1 |
| 20260906122019 | 13 | 10 | 9.7 | 14.5 | 0.00 | 0.00 | 0.00 | 86 | 1019.1 |
| 20260906121539 | 13 | 18 | 9.7 | 17.7 | 0.00 | 0.00 | 0.00 | 86 | 1019.1 |
| 20260906121021 | 13 | 24 | 11.3 | 17.7 | 0.00 | 0.00 | 0.00 | 86 | 1018.8 |
| 20260906120516 | 13 | 26 | 12.9 | 17.7 | 0.00 | 0.00 | 0.00 | 87 | 1018.9 |
| 20260906120042 | 13 | 25 | 11.3 | 16.1 | 0.00 | 0.00 | 0.00 | 87 | 1018.9 |
| 20260906115518 | 13 | 11 | 11.3 | 17.7 | 0.00 | 0.00 | 0.00 | 87 | 1018.9 |
| 20260906115017 | 13 | 9 | 12.9 | 17.7 | 0.00 | 0.00 | 0.00 | 86 | 1018.9 |
| 20260906114546 | 13 | 16 | 12.9 | 17.7 | 0.00 | 0.00 | 0.00 | 86 | 1018.9 |
| 20260906114016 | 13 | 9 | 12.9 | 16.1 | 0.00 | 0.00 | 0.00 | 86 | 1019.1 |
| 20260906113513 | 13 | 352 | 11.3 | 17.7 | 0.00 | 0.00 | 0.00 | 85 | 1019.1 |
| 20260906113038 | 13 | 352 | 12.9 | 17.7 | 0.00 | 0.00 | 0.00 | 85 | 1019.1 |
| 20260906112518 | 13 | 360 | 11.3 | 19.3 | 0.00 | 0.00 | 0.00 | 85 | 1018.9 |
| 20260906112020 | 13 | 9 | 14.5 | 19.3 | 0.00 | 0.00 | 0.00 | 85 | 1018.9 |
| 20260906111540 | 13 | 352 | 14.5 | 20.9 | 0.00 | 0.00 | 0.00 | 85 | 1018.9 |
| 20260906111016 | 13 | 360 | 16.1 | 20.9 | 0.00 | 0.00 | 0.00 | 85 | 1018.8 |
| 20260906110516 | 13 | 11 | 17.7 | 20.9 | 0.00 | 0.00 | 0.00 | 85 | 1018.8 |
| 20260906110041 | 13 | 9 | 16.1 | 20.9 | 0.00 | 0.00 | 0.00 | 85 | 1018.8 |
| 20260906105518 | 13 | 360 | 16.1 | 20.9 | 0.00 | 0.00 | 0.00 | 85 | 1019.0 |
| 20260906105016 | 13 | 5 | 14.5 | 20.9 | 0.00 | 0.00 | 0.00 | 84 | 1019.1 |
| 20260906104540 | 13 | 352 | 16.1 | 20.9 | 0.00 | 0.00 | 0.00 | 84 | 1019.2 |
| 20260906104020 | 13 | 360 | 16.1 | 24.1 | 0.00 | 0.00 | 0.00 | 84 | 1019.2 |
| 20260906103517 | 13 | 352 | 17.7 | 25.7 | 0.00 | 0.00 | 0.00 | 84 | 1019.1 |
| 20260906103039 | 13 | 360 | 16.1 | 25.7 | 0.00 | 0.00 | 0.00 | 84 | 1019.1 |
| 20260906102517 | 13 | 9 | 17.7 | 24.1 | 0.00 | 0.00 | 0.00 | 85 | 1019.1 |
| 20260906102017 | 13 | 5 | 16.1 | 24.1 | 0.00 | 0.00 | 0.00 | 84 | 1019.2 |
| 20260906101539 | 13 | 9 | 17.7 | 27.4 | 0.00 | 0.00 | 0.00 | 84 | 1019.2 |
| 20260906101016 | 13 | 5 | 19.3 | 27.4 | 0.00 | 0.00 | 0.00 | 85 | 1019.2 |
| 20260906100516 | 13 | 352 | 20.9 | 25.7 | 0.00 | 0.00 | 0.00 | 85 | 1019.1 |
| 20260906100040 | 13 | 360 | 19.3 | 25.7 | 0.00 | 0.00 | 0.00 | 85 | 1019.1 |
| 20260906095524 | 13 | 352 | 19.3 | 25.7 | 0.00 | 0.00 | 0.00 | 85 | 1019.3 |
| 20260906095017 | 13 | 10 | 19.3 | 25.7 | 0.00 | 0.00 | 0.00 | 85 | 1019.2 |
| 20260906094558 | 13 | 352 | 19.3 | 27.4 | 0.00 | 0.00 | 0.00 | 85 | 1019.3 |
| 20260906094021 | 13 | 14 | 17.7 | 30.6 | 0.00 | 0.00 | 0.00 | 85 | 1019.3 |
| 20260906093516 | 12 | 338 | 24.1 | 30.6 | 0.00 | 0.00 | 0.00 | 86 | 1019.3 |
| 20260906093102 | 12 | 340 | 19.3 | 25.7 | 0.00 | 0.00 | 0.00 | 85 | 1019.3 |
| 20260906092517 | 12 | 345 | 19.3 | 25.7 | 0.00 | 0.00 | 0.00 | 85 | 1019.3 |
| 20260906092017 | 12 | 336 | 17.7 | 22.5 | 0.00 | 0.00 | 0.00 | 85 | 1019.4 |
| 20260906091537 | 12 | 352 | 16.1 | 20.9 | 0.00 | 0.00 | 0.00 | 85 | 1019.3 |
| 20260906091016 | 12 | 346 | 16.1 | 20.9 | 0.00 | 0.00 | 0.00 | 84 | 1019.2 |
| 20260906090515 | 12 | 339 | 14.5 | 24.1 | 0.00 | 0.00 | 0.00 | 84 | 1019.3 |
| 20260906090038 | 12 | 352 | 16.1 | 24.1 | 0.00 | 0.00 | 0.00 | 83 | 1019.4 |
| 20260906085520 | 12 | 344 | 19.3 | 25.7 | 0.00 | 0.00 | 0.00 | 83 | 1019.3 |
| 20260906085017 | 12 | 352 | 19.3 | 25.7 | 0.00 | 0.00 | 0.00 | 83 | 1019.2 |
| 20260906084537 | 12 | 5 | 17.7 | 24.1 | 0.00 | 0.00 | 0.00 | 83 | 1019.2 |
| 20260906084021 | 12 | 360 | 19.3 | 24.1 | 0.00 | 0.00 | 0.00 | 82 | 1019.3 |
| 20260906083518 | 13 | 360 | 17.7 | 24.1 | 0.00 | 0.00 | 0.00 | 82 | 1019.4 |
| 20260906083045 | 13 | 347 | 17.7 | 24.1 | 0.00 | 0.00 | 0.00 | 82 | 1019.3 |
| 20260906082517 | 13 | 360 | 19.3 | 25.7 | 0.00 | 0.00 | 0.00 | 81 | 1019.4 |
| 20260906082019 | 13 | 360 | 19.3 | 25.7 | 0.00 | 0.00 | 0.00 | 81 | 1019.4 |
| 20260906081540 | 13 | 9 | 19.3 | 29.0 | 0.00 | 0.00 | 0.00 | 80 | 1019.6 |
| 20260906081017 | 13 | 5 | 19.3 | 32.2 | 0.00 | 0.00 | 0.00 | 80 | 1019.4 |
| 20260906080518 | 13 | 9 | 22.5 | 29.0 | 0.00 | 0.00 | 0.00 | 80 | 1019.4 |
| 20260906080043 | 13 | 360 | 20.9 | 29.0 | 0.00 | 0.00 | 0.00 | 79 | 1019.5 |
| 20260906075517 | 13 | 360 | 19.3 | 30.6 | 0.00 | 0.00 | 0.00 | 79 | 1019.7 |
| 20260906075017 | 13 | 9 | 22.5 | 30.6 | 0.00 | 0.00 | 0.00 | 79 | 1019.6 |
| 20260906074534 | 13 | 9 | 22.5 | 30.6 | 0.00 | 0.00 | 0.00 | 79 | 1019.7 |
| 20260906074016 | 13 | 360 | 22.5 | 30.6 | 0.00 | 0.00 | 0.00 | 78 | 1019.8 |
| 20260906073518 | 14 | 5 | 20.9 | 27.4 | 0.00 | 0.00 | 0.00 | 77 | 1020.0 |
| 20260906073034 | 14 | 15 | 20.9 | 27.4 | 0.00 | 0.00 | 0.00 | 77 | 1020.1 |
| 20260906072515 | 14 | 13 | 19.3 | 27.4 | 0.00 | 0.00 | 0.00 | 77 | 1020.0 |
| 20260906072015 | 14 | 12 | 20.9 | 27.4 | 0.00 | 0.00 | 0.00 | 76 | 1020.1 |
| 20260906071537 | 14 | 9 | 19.3 | 25.7 | 0.00 | 0.00 | 0.00 | 77 | 1020.2 |
| 20260906071018 | 14 | 15 | 20.9 | 25.7 | 0.00 | 0.00 | 0.00 | 77 | 1020.3 |
| 20260906070521 | 14 | 22 | 19.3 | 29.0 | 0.00 | 0.00 | 0.00 | 76 | 1020.3 |
| 20260906070044 | 14 | 5 | 20.9 | 29.0 | 0.00 | 0.00 | 0.00 | 76 | 1020.4 |
| 20260906065518 | 14 | 13 | 19.3 | 29.0 | 0.00 | 0.00 | 0.00 | 77 | 1020.4 |
| 20260906065018 | 14 | 5 | 22.5 | 29.0 | 0.00 | 0.00 | 0.00 | 77 | 1020.5 |
| 20260906064542 | 14 | 10 | 19.3 | 24.1 | 0.00 | 0.00 | 0.00 | 77 | 1020.5 |
| 20260906064019 | 14 | 352 | 17.7 | 24.1 | 0.00 | 0.00 | 0.00 | 77 | 1020.5 |
| 20260906063516 | 14 | 16 | 17.7 | 25.7 | 0.00 | 0.00 | 0.00 | 77 | 1020.4 |
| 20260906063043 | 14 | 360 | 17.7 | 25.7 | 0.00 | 0.00 | 0.00 | 77 | 1020.5 |
| 20260906062518 | 14 | 9 | 17.7 | 25.7 | 0.00 | 0.00 | 0.00 | 77 | 1020.5 |
| 20260906062017 | 14 | 17 | 19.3 | 24.1 | 0.00 | 0.00 | 0.00 | 77 | 1020.6 |
| 20260906061549 | 14 | 9 | 19.3 | 24.1 | 0.00 | 0.00 | 0.00 | 78 | 1020.6 |
| 20260906061021 | 14 | 15 | 16.1 | 24.1 | 0.00 | 0.00 | 0.00 | 77 | 1020.6 |
| 20260906060523 | 14 | 360 | 19.3 | 24.1 | 0.00 | 0.00 | 0.00 | 77 | 1020.5 |
| 20260906060047 | 14 | 352 | 17.7 | 24.1 | 0.00 | 0.00 | 0.00 | 77 | 1020.7 |
| 20260906055520 | 14 | 346 | 17.7 | 22.5 | 0.00 | 0.00 | 0.00 | 77 | 1020.7 |
| 20260906055016 | 14 | 23 | 17.7 | 24.1 | 0.00 | 0.00 | 0.00 | 77 | 1020.7 |
| 20260906054548 | 14 | 11 | 16.1 | 24.1 | 0.00 | 0.00 | 0.00 | 77 | 1020.6 |
| 20260906054021 | 14 | 352 | 17.7 | 24.1 | 0.00 | 0.00 | 0.00 | 76 | 1020.7 |
| 20260906053519 | 14 | 11 | 17.7 | 22.5 | 0.00 | 0.00 | 0.00 | 76 | 1020.7 |
| 20260906053032 | 14 | 360 | 17.7 | 22.5 | 0.00 | 0.00 | 0.00 | 76 | 1020.7 |
| 20260906052519 | 14 | 12 | 17.7 | 22.5 | 0.00 | 0.00 | 0.00 | 76 | 1020.7 |
| 20260906052019 | 15 | 352 | 16.1 | 22.5 | 0.00 | 0.00 | 0.00 | 76 | 1020.7 |
| 20260906051555 | 15 | 5 | 17.7 | 27.4 | 0.00 | 0.00 | 0.00 | 75 | 1020.8 |
| 20260906051018 | 15 | 10 | 17.7 | 29.0 | 0.00 | 0.00 | 0.00 | 75 | 1020.7 |
| 20260906050520 | 15 | 9 | 17.7 | 30.6 | 0.00 | 0.00 | 0.00 | 75 | 1020.4 |
| 20260906045518 | 15 | 9 | 19.3 | 27.4 | 0.00 | 0.00 | 0.00 | 75 | 1020.2 |
| 20260906045018 | 15 | 360 | 19.3 | 29.0 | 0.00 | 0.00 | 0.00 | 75 | 1020.2 |
| 20260906044555 | 15 | 5 | 20.9 | 30.6 | 0.00 | 0.00 | 0.00 | 75 | 1020.0 |
| 20260906044019 | 15 | 14 | 22.5 | 29.0 | 0.00 | 0.00 | 0.00 | 75 | 1019.8 |
| 20260906043517 | 15 | 29 | 19.3 | 27.4 | 0.00 | 0.00 | 0.00 | 74 | 1019.9 |
| 20260906043056 | 15 | 9 | 20.9 | 29.0 | 0.00 | 0.00 | 0.00 | 74 | 1019.9 |
| 20260906042518 | 15 | 352 | 22.5 | 29.0 | 0.00 | 0.00 | 0.00 | 74 | 1019.9 |
| 20260906042018 | 15 | 351 | 20.9 | 25.7 | 0.00 | 0.00 | 0.00 | 74 | 1019.9 |
| 20260906041550 | 15 | 345 | 19.3 | 30.6 | 0.00 | 0.00 | 0.00 | 73 | 1019.9 |
| 20260906041018 | 15 | 347 | 20.9 | 30.6 | 0.00 | 0.00 | 0.00 | 73 | 1020.0 |
| 20260906040519 | 15 | 340 | 20.9 | 27.4 | 0.00 | 0.00 | 0.00 | 72 | 1019.8 |
| 20260906040033 | 15 | 348 | 19.3 | 30.6 | 0.00 | 0.00 | 0.00 | 72 | 1019.9 |
| 20260906035516 | 15 | 337 | 24.1 | 30.6 | 0.00 | 0.00 | 0.00 | 72 | 1019.9 |
| 20260906035021 | 15 | 352 | 20.9 | 25.7 | 0.00 | 0.00 | 0.00 | 72 | 1019.6 |
| 20260906034547 | 15 | 342 | 19.3 | 25.7 | 0.00 | 0.00 | 0.00 | 71 | 1019.7 |
| 20260906034018 | 15 | 346 | 19.3 | 25.7 | 0.00 | 0.00 | 0.00 | 71 | 1019.5 |
| 20260906033516 | 15 | 346 | 17.7 | 24.1 | 0.00 | 0.00 | 0.00 | 70 | 1019.5 |
| 20260906033056 | 15 | 360 | 17.7 | 24.1 | 0.00 | 0.00 | 0.00 | 70 | 1019.4 |
| 20260906032516 | 15 | 352 | 19.3 | 25.7 | 0.00 | 0.00 | 0.00 | 70 | 1019.2 |
| 20260906032016 | 15 | 351 | 17.7 | 25.7 | 0.00 | 0.00 | 0.00 | 70 | 1019.1 |
| 20260906031547 | 16 | 352 | 20.9 | 27.4 | 0.00 | 0.00 | 0.00 | 69 | 1019.0 |
| 20260906031019 | 16 | 360 | 20.9 | 30.6 | 0.00 | 0.00 | 0.00 | 69 | 1018.9 |
| 20260906030518 | 16 | 347 | 19.3 | 27.4 | 0.00 | 0.00 | 0.00 | 69 | 1019.0 |
| 20260906030050 | 16 | 346 | 20.9 | 27.4 | 0.00 | 0.00 | 0.00 | 69 | 1018.8 |
| 20260906025520 | 16 | 352 | 20.9 | 27.4 | 0.00 | 0.00 | 0.00 | 68 | 1018.7 |
| 20260906025022 | 16 | 342 | 20.9 | 30.6 | 0.00 | 0.00 | 0.00 | 68 | 1018.8 |
| 20260906024600 | 16 | 350 | 24.1 | 30.6 | 0.00 | 0.00 | 0.00 | 68 | 1018.7 |
| 20260906024019 | 16 | 5 | 20.9 | 27.4 | 0.00 | 0.00 | 0.00 | 67 | 1018.8 |
| 20260906023520 | 16 | 352 | 20.9 | 29.0 | 0.00 | 0.00 | 0.00 | 67 | 1018.9 |
| 20260906023046 | 16 | 360 | 22.5 | 27.4 | 0.00 | 0.00 | 0.00 | 66 | 1018.8 |
| 20260906022522 | 16 | 342 | 19.3 | 27.4 | 0.00 | 0.00 | 0.00 | 66 | 1018.8 |
| 20260906022019 | 16 | 352 | 22.5 | 32.2 | 0.00 | 0.00 | 0.00 | 65 | 1018.4 |
| 20260906021547 | 17 | 342 | 24.1 | 32.2 | 0.00 | 0.00 | 0.00 | 65 | 1018.9 |
| 20260906021017 | 17 | 347 | 20.9 | 32.2 | 0.00 | 0.00 | 0.00 | 64 | 1018.6 |
| 20260906020517 | 17 | 352 | 24.1 | 32.2 | 0.00 | 0.00 | 0.00 | 63 | 1018.5 |
| 20260906020046 | 17 | 352 | 24.1 | 30.6 | 0.00 | 0.00 | 0.00 | 63 | 1018.6 |
| 20260906015516 | 17 | 352 | 24.1 | 32.2 | 0.00 | 0.00 | 0.00 | 62 | 1018.6 |
| 20260906015016 | 17 | 360 | 24.1 | 33.8 | 0.00 | 0.00 | 0.00 | 61 | 1018.7 |
| 20260906014625 | 17 | 352 | 24.1 | 33.8 | 0.00 | 0.00 | 0.00 | 60 | 1018.7 |
| 20260906014022 | 18 | 9 | 24.1 | 33.8 | 0.00 | 0.00 | 0.00 | 59 | 1018.7 |
| 20260906013518 | 18 | 352 | 27.4 | 37.0 | 0.00 | 0.00 | 0.00 | 57 | 1018.5 |
| 20260906013058 | 18 | 9 | 29.0 | 37.0 | 0.00 | 0.00 | 0.00 | 57 | 1018.7 |
| 20260906012522 | 18 | 352 | 25.7 | 35.4 | 0.00 | 0.00 | 0.00 | 55 | 1018.5 |
| 20260906012019 | 19 | 5 | 25.7 | 35.4 | 0.00 | 0.00 | 0.00 | 54 | 1018.6 |
| 20260906011605 | 20 | 20 | 25.7 | 38.6 | 0.00 | 0.00 | 0.00 | 52 | 1018.8 |
| 20260906011018 | 21 | 360 | 25.7 | 38.6 | 0.00 | 0.00 | 0.00 | 49 | 1018.5 |
| 20260906010519 | 21 | 5 | 29.0 | 37.0 | 0.00 | 0.00 | 0.00 | 46 | 1018.7 |
| 20260906010058 | 21 | 350 | 30.6 | 37.0 | 0.00 | 0.00 | 0.00 | 44 | 1018.4 |
| 20260906005516 | 21 | 344 | 27.4 | 37.0 | 0.00 | 0.00 | 0.00 | 43 | 1018.2 |
| 20260906005018 | 22 | 342 | 27.4 | 37.0 | 0.00 | 0.00 | 0.00 | 43 | 1018.4 |
| 20260906004606 | 22 | 340 | 29.0 | 38.6 | 0.00 | 0.00 | 0.00 | 42 | 1018.5 |
| 20260906004025 | 23 | 5 | 29.0 | 38.6 | 0.00 | 0.00 | 0.00 | 40 | 1018.5 |
| 20260906003516 | 24 | 350 | 20.9 | 29.0 | 0.00 | 0.00 | 0.00 | 34 | 1018.2 |
| 20260906003059 | 24 | 352 | 22.5 | 30.6 | 0.00 | 0.00 | 0.00 | 33 | 1018.2 |
| 20260906002515 | 24 | 9 | 20.9 | 29.0 | 0.00 | 0.00 | 0.00 | 33 | 1018.2 |
| 20260906002019 | 24 | 360 | 20.9 | 30.6 | 0.00 | 0.00 | 0.00 | 33 | 1018.3 |
| 20260906001551 | 25 | 5 | 24.1 | 30.6 | 0.00 | 0.00 | 0.00 | 33 | 1018.1 |
| 20260906001019 | 25 | 350 | 17.7 | 29.0 | 0.00 | 0.00 | 0.00 | 32 | 1018.3 |
| 20260906000517 | 25 | 5 | 19.3 | 29.0 | 0.00 | 0.00 | 0.00 | 32 | 1018.3 |
| 20260906000055 | 25 | 346 | 19.3 | 29.0 | 0.00 | 0.00 | 0.00 | 32 | 1018.2 |
| 20260905235519 | 25 | 9 | 16.1 | 33.8 | 0.00 | 0.00 | 0.00 | 32 | 1018.4 |
| 20260905235020 | 25 | 11 | 17.7 | 33.8 | 0.00 | 0.00 | 0.00 | 32 | 1018.4 |
| 20260905234558 | 25 | 360 | 20.9 | 27.4 | 0.00 | 0.00 | 0.00 | 32 | 1018.4 |
| 20260905234018 | 25 | 331 | 16.1 | 25.7 | 0.00 | 0.00 | 0.00 | 32 | 1018.3 |
| 20260905233523 | 25 | 24 | 19.3 | 25.7 | 0.00 | 0.00 | 0.00 | 32 | 1018.5 |
| 20260905233051 | 25 | 42 | 16.1 | 24.1 | 0.00 | 0.00 | 0.00 | 31 | 1018.6 |
| 20260905232520 | 25 | 59 | 14.5 | 27.4 | 0.00 | 0.00 | 0.00 | 30 | 1018.5 |
| 20260905232021 | 25 | 24 | 12.9 | 27.4 | 0.00 | 0.00 | 0.00 | 31 | 1018.5 |
| 20260905231550 | 25 | 18 | 16.1 | 27.4 | 0.00 | 0.00 | 0.00 | 31 | 1018.2 |
| 20260905231018 | 25 | 24 | 14.5 | 25.7 | 0.00 | 0.00 | 0.00 | 31 | 1018.4 |
| 20260905230519 | 25 | 352 | 17.7 | 27.4 | 0.00 | 0.00 | 0.00 | 31 | 1018.5 |
| 20260905230108 | 25 | 352 | 17.7 | 27.4 | 0.00 | 0.00 | 0.00 | 31 | 1018.5 |